Regional Weather Roundup
Issued by NWS

Home | Current Version | Previous Version | Text Only | Print | Product List | Glossary Off
Versions: 1 2 3 4 5 6 7 8 9 10 11 12 13 14 15 16 17 18 19 20 21 22 23 24 25 26 27 28 29 30 31 32 33 34 35 36 37 38 39 40 41 42 43 44 45 46 47 48 49 50

377
ASUS43 KDMX 251503
RWRIA

WEATHER ROUNDUP FOR IOWA
NATIONAL WEATHER SERVICE DES MOINES IA
1000 AM CDT MON JUL 25 2016

NOTE: "FAIR" INDICATES FEW OR NO CLOUDS BELOW 12,000 FEET WITH NO
SIGNIFICANT WEATHER AND/OR OBSTRUCTIONS TO VISIBILITY.

* - THESE STATIONS ARE NOT NWS STATIONS...THUS NOT UNDER NWS
QUALITY CONTROL.  THEY ALSO DO NOT REPORT WEATHER SUCH
AS PRECIPITATION OR FOG.

IAZ001>003-012>014-020>022-031>034-043>046-251600-
   NORTHWEST IOWA

CITY           SKY/WX    TMP DP  RH WIND       PRES   REMARKS
CARROLL *      SUNNY     77  66  69 CALM      30.12S
CHEROKEE *     SUNNY     75  67  75 CALM      30.13F
DENISON *      SUNNY     77  66  69 CALM      30.12R
LE MARS *      SUNNY     77  63  61 CALM      30.14S
SHELDON *      SUNNY     73  68  83 CALM      30.13S
SIOUX CITY     SUNNY     79  63  57 CALM      30.13S HX  80
SPENCER          N/A     76  64  66 CALM      30.13F
STORM LAKE *   SUNNY     77  64  65 CALM      30.14S
$$

IAZ055>058-069>071-079>083-090>094-251600-
   SOUTHWEST IOWA

CITY           SKY/WX    TMP DP  RH WIND       PRES   REMARKS
ATLANTIC *     SUNNY     77  66  69 NE6       30.12R
CLARINDA *       N/A     75  68  78 MISG      30.14S
COUNCIL BLFS * MOSUNNY   77  66  69 VRB5      30.14R
CRESTON *      CLOUDY    75  66  73 NE6       30.14R
HARLAN  *      MOSUNNY   77  66  69 E5        30.16R
LAMONI         CLOUDY    75  68  78 NE3       30.11R
RED OAK *      CLOUDY    75  68  78 SW3       30.13R
SHENANDOAH *   CLOUDY    73  68  83 CALM      30.13S
$$

IAZ047>049-059>061-072>074-084-251600-
   CENTRAL IOWA

CITY           SKY/WX    TMP DP  RH WIND       PRES   REMARKS
AMES           SUNNY     79  69  71 N7        30.09S HX  81
ANKENY *         N/A    N/A N/A N/A MISG        N/A
BOONE *        SUNNY     77  68  73 VRB5      30.10S
CHARITON *       N/A    N/A N/A N/A MISG        N/A
DES MOINES     MOSUNNY   81  64  56 VRB5      30.08S HX  82
GRINNELL*      SUNNY     78  67  70 N7        30.09R HX  80
KNOXVILLE *    CLOUDY    77  66  69 VRB3      30.08S
MARSHALLTOWN   SUNNY     78  69  73 N8        30.08S HX  80
NEWTON *       SUNNY     79  68  69 NE8       30.08R HX  81
PELLA *        SUNNY     78  66  64 CALM      30.10R HX  80
PERRY *          N/A     77  69  78 NW3       30.11S
$$

IAZ004>006-015-016-023>025-035-036-251600-
   NORTH CENTRAL IOWA

CITY           SKY/WX    TMP DP  RH WIND       PRES   REMARKS
ALGONA *       SUNNY     77  63  61 SW6       30.12F
ESTHERVILLE    SUNNY     75  64  68 W5        30.12F
FORT DODGE *   SUNNY     75  68  78 CALM      30.12F
MASON CITY     SUNNY     77  63  61 W8        30.12S
FOREST CITY *    N/A     75  64  69 SW5       30.11F
IOWA FALLS *     N/A     78  66  66 W3        30.11S HX  80
$$

IAZ007>011-017>019-026>030-037>042-050>054-066-251600-
   NORTHEAST IOWA

CITY           SKY/WX    TMP DP  RH WIND       PRES   REMARKS
CEDAR RAPIDS   SUNNY     77  70  79 N3        30.06S
CHARLES CITY * SUNNY     75  68  78 VRB5      30.10S
CLINTON *      CLOUDY    78  70  76 N8        30.04S HX  80
DECORAH *      SUNNY     75  64  69 NW7       30.07S
DUBUQUE        SUNNY     78  66  66 N8        30.06R HX  80
MONTICELLO *   SUNNY     77  66  69 N5        30.05S
OELWEIN *      SUNNY     75  68  78 NW8       30.09S
WATERLOO       SUNNY     78  65  63 NW7       30.07S HX  80
$$

IAZ064-065-067-068-078-251600-
   EAST CENTRAL IOWA

CITY           SKY/WX    TMP DP  RH WIND       PRES   REMARKS
DAVENPORT      CLOUDY    77  68  73 N9        30.04S
IOWA CITY      CLOUDY    79  67  66 NW5       30.07S HX  81
MT. PLEASANT * CLOUDY    78  70  75 N12       30.04S HX  81
MUSCATINE *    MOSUNNY   77  68  73 N8        30.04S
QUAD CITIES    MOSUNNY   80  66  62 VRB7      30.02S HX  82
$$

IAZ062-063-075>077-085>089-095>099-251600-
   SOUTHEAST IOWA

CITY           SKY/WX    TMP DP  RH WIND       PRES   REMARKS
BURLINGTON     CLOUDY    76  69  79 N9        30.02F
FAIRFIELD *    MOSUNNY   75  66  73 N8        30.06S
KEOKUK *       PTSUNNY   75  70  83 VRB6      30.02S
OSKALOOSA *      N/A     74  67  78 N3        30.08F
CENTERVILLE *    N/A     77  66  69 N5        30.10R
OTTUMWA        CLOUDY    77  66  68 N8        30.07F
WASHINGTON *   CLOUDY    77  68  73 N9        30.06F
$$

ABBREVIATIONS USED IN REMARKS
   TC - TEMPERATURES IN CELSIUS
  WCI - WIND CHILL INDEX
   HX - HEAT INDEX
  VSB - VISIBILITY
$$





USA.gov is the U.S. government's official web portal to all federal, state and local government web resources and services.